| time (UTC) | temp F | wind direction | speed knots | gust knots | rain 1hr in | rain 24hr in | rain mn in | humidity % | barometer mb |
| 20260509162102 | 89 | 0 | 2.6 | 1.7 | 0.00 | 0.00 | 0.00 | ||
| 20260509161602 | 89 | 318 | 2.6 | 3.5 | 0.00 | 0.00 | 0.00 | ||
| 20260509160602 | 87 | 344 | 3.5 | 1.7 | 0.00 | 0.00 | 0.00 | ||
| 20260509155602 | 86 | 359 | 4.3 | 7.8 | 0.00 | 0.00 | 0.00 | ||
| 20260509155102 | 86 | 332 | 1.7 | 5.2 | 0.00 | 0.00 | 0.00 | ||
| 20260509154602 | 85 | 359 | 4.3 | 5.2 | 0.00 | 0.00 | 0.00 | ||
| 20260509153102 | 83 | 331 | 3.5 | 3.5 | 0.00 | 0.00 | 0.00 | ||
| 20260509152602 | 82 | 341 | 3.5 | 2.6 | 0.00 | 0.00 | 0.00 | ||
| 20260509151602 | 81 | 338 | 2.6 | 4.3 | 0.00 | 0.00 | 0.00 | ||
| 20260509151102 | 81 | 331 | 2.6 | 2.6 | 0.00 | 0.00 | 0.00 | ||
| 20260509150602 | 80 | 342 | 0.9 | 0.0 | 0.00 | 0.00 | 0.00 | ||
| 20260509145602 | 79 | 355 | 3.5 | 2.6 | 0.00 | 0.00 | 0.00 | ||
| 20260509145102 | 79 | 263 | 1.7 | 2.6 | 0.00 | 0.00 | 0.00 | ||
| 20260509144602 | 79 | 331 | 1.7 | 2.6 | 0.00 | 0.00 | 0.00 | ||
| 20260509144103 | 78 | 49 | 1.7 | 2.6 | 0.00 | 0.00 | 0.00 | ||
| 20260509143602 | 78 | 351 | 1.7 | 1.7 | 0.00 | 0.00 | 0.00 | ||
| 20260509143102 | 79 | 341 | 2.6 | 1.7 | 0.00 | 0.00 | 0.00 | ||
| 20260509142102 | 78 | 187 | 1.7 | 0.9 | 0.00 | 0.00 | 0.00 | ||
| 20260509141602 | 77 | 329 | 1.7 | 0.0 | 0.00 | 0.00 | 0.00 | ||
| 20260509141102 | 77 | 304 | 2.6 | 0.9 | 0.00 | 0.00 | 0.00 | ||
| 20260509140602 | 76 | 306 | 2.6 | 2.6 | 0.00 | 0.00 | 0.00 | ||
| 20260509135602 | 76 | 307 | 2.6 | 2.6 | 0.00 | 0.00 | 0.00 | ||
| 20260509135102 | 76 | 280 | 1.7 | 0.9 | 0.00 | 0.00 | 0.00 | ||
| 20260509134602 | 76 | 338 | 1.7 | 2.6 | 0.00 | 0.00 | 0.00 | ||
| 20260509134103 | 76 | 344 | 0.9 | 1.7 | 0.00 | 0.00 | 0.00 | ||
| 20260509133602 | 74 | 338 | 2.6 | 4.3 | 0.00 | 0.00 | 0.00 | ||
| 20260509133102 | 74 | 310 | 1.7 | 2.6 | 0.00 | 0.00 | 0.00 | ||
| 20260509132602 | 73 | 321 | 2.6 | 1.7 | 0.00 | 0.00 | 0.00 | ||
| 20260509132104 | 72 | 41 | 2.6 | 1.7 | 0.00 | 0.00 | 0.00 | ||
| 20260509131602 | 72 | 1 | 3.5 | 5.2 | 0.00 | 0.00 | 0.00 | ||
| 20260509131102 | 72 | 335 | 1.7 | 2.6 | 0.00 | 0.00 | 0.00 | ||
| 20260509130602 | 71 | 328 | 2.6 | 3.5 | 0.00 | 0.00 | 0.00 | ||
| 20260509125602 | 71 | 352 | 3.5 | 4.3 | 0.00 | 0.00 | 0.00 | ||
| 20260509125102 | 71 | 8 | 2.6 | 3.5 | 0.00 | 0.00 | 0.00 | ||
| 20260509124603 | 71 | 342 | 2.6 | 1.7 | 0.00 | 0.00 | 0.00 | ||
| 20260509124102 | 70 | 332 | 3.5 | 3.5 | 0.00 | 0.00 | 0.00 | ||
| 20260509123602 | 70 | 324 | 1.7 | 3.5 | 0.00 | 0.00 | 0.00 | ||
| 20260509123102 | 70 | 336 | 1.7 | 3.5 | 0.00 | 0.00 | 0.00 | ||
| 20260509122603 | 69 | 338 | 0.0 | 0.0 | 0.00 | 0.00 | 0.00 | ||
| 20260509122102 | 68 | 342 | 0.9 | 3.5 | 0.00 | 0.00 | 0.00 | ||
| 20260509121602 | 68 | 324 | 0.0 | 0.9 | 0.00 | 0.00 | 0.00 | ||
| 20260509121103 | 68 | 318 | 0.0 | 0.0 | 0.00 | 0.00 | 0.00 | ||
| 20260509120602 | 68 | 287 | 0.0 | 0.0 | 0.00 | 0.00 | 0.00 | ||
| 20260509115602 | 67 | 293 | 0.9 | 0.9 | 0.00 | 0.00 | 0.00 | ||
| 20260509115103 | 67 | 244 | 0.9 | 1.7 | 0.00 | 0.00 | 0.00 | ||
| 20260509114603 | 67 | 252 | 0.9 | 1.7 | 0.00 | 0.00 | 0.00 | ||
| 20260509114102 | 67 | 258 | 0.0 | 0.0 | 0.00 | 0.00 | 0.00 | ||
| 20260509113603 | 67 | 267 | 0.0 | 0.0 | 0.00 | 0.00 | 0.00 | ||
| 20260509113103 | 67 | 229 | 0.9 | 0.9 | 0.00 | 0.00 | 0.00 | ||
| 20260509112603 | 68 | 211 | 0.0 | 0.0 | 0.00 | 0.00 | 0.00 | ||
| 20260509112103 | 68 | 220 | 0.9 | 0.9 | 0.00 | 0.00 | 0.00 | ||
| 20260509111603 | 67 | 252 | 0.9 | 2.6 | 0.00 | 0.00 | 0.00 | ||
| 20260509111103 | 68 | 248 | 0.0 | 0.0 | 0.00 | 0.00 | 0.00 | ||
| 20260509110602 | 68 | 255 | 0.9 | 0.9 | 0.00 | 0.00 | 0.00 | ||
| 20260509110104 | 68 | 269 | 1.7 | 1.7 | 0.00 | 0.00 | 0.00 | ||
| 20260509105603 | 68 | 245 | 0.0 | 0.0 | 0.00 | 0.00 | 0.00 | ||
| 20260509105103 | 69 | 289 | 0.9 | 1.7 | 0.00 | 0.00 | 0.00 | ||
| 20260509104603 | 69 | 289 | 0.0 | 0.0 | 0.00 | 0.00 | 0.00 | ||
| 20260509104108 | 69 | 289 | 0.0 | 0.0 | 0.00 | 0.00 | 0.00 | ||
| 20260509103603 | 70 | 289 | 0.0 | 0.0 | 0.00 | 0.00 | 0.00 | ||
| 20260509103103 | 70 | 289 | 0.0 | 0.0 | 0.00 | 0.00 | 0.00 | ||
| 20260509102602 | 70 | 266 | 1.7 | 2.6 | 0.00 | 0.00 | 0.00 | ||
| 20260509101603 | 71 | 244 | 1.7 | 2.6 | 0.00 | 0.00 | 0.00 | ||
| 20260509100605 | 71 | 258 | 0.0 | 0.0 | 0.00 | 0.00 | 0.00 | ||
| 20260509095603 | 71 | 204 | 0.9 | 0.0 | 0.00 | 0.00 | 0.00 | ||
| 20260509095103 | 71 | 286 | 0.0 | 0.0 | 0.00 | 0.00 | 0.00 | ||
| 20260509094603 | 71 | 286 | 0.0 | 0.0 | 0.00 | 0.00 | 0.00 | ||
| 20260509094103 | 71 | 351 | 0.9 | 0.0 | 0.00 | 0.00 | 0.00 | ||
| 20260509093603 | 71 | 338 | 2.6 | 3.5 | 0.00 | 0.00 | 0.00 | ||
| 20260509093103 | 71 | 351 | 2.6 | 2.6 | 0.00 | 0.00 | 0.00 | ||
| 20260509092603 | 71 | 352 | 5.2 | 8.7 | 0.00 | 0.00 | 0.00 | ||
| 20260509092103 | 71 | 359 | 2.6 | 2.6 | 0.00 | 0.00 | 0.00 | ||
| 20260509091604 | 71 | 328 | 4.3 | 6.1 | 0.00 | 0.00 | 0.00 | ||
| 20260509091103 | 71 | 228 | 0.9 | 0.9 | 0.00 | 0.00 | 0.00 | ||
| 20260509090603 | 71 | 201 | 1.7 | 0.9 | 0.00 | 0.00 | 0.00 | ||
| 20260509090104 | 71 | 53 | 0.9 | 0.0 | 0.00 | 0.00 | 0.00 | ||
| 20260509085103 | 71 | 256 | 3.5 | 3.5 | 0.00 | 0.00 | 0.00 | ||
| 20260509084604 | 71 | 231 | 3.5 | 5.2 | 0.00 | 0.00 | 0.00 | ||
| 20260509083604 | 71 | 234 | 3.5 | 5.2 | 0.00 | 0.00 | 0.00 | ||
| 20260509083103 | 71 | 210 | 2.6 | 3.5 | 0.00 | 0.00 | 0.00 | ||
| 20260509082603 | 71 | 225 | 2.6 | 6.1 | 0.00 | 0.00 | 0.00 | ||
| 20260509081603 | 70 | 206 | 2.6 | 2.6 | 0.00 | 0.00 | 0.00 | ||
| 20260509081103 | 70 | 197 | 1.7 | 0.9 | 0.00 | 0.00 | 0.00 | ||
| 20260509080603 | 70 | 196 | 2.6 | 2.6 | 0.00 | 0.00 | 0.00 | ||
| 20260509075603 | 70 | 175 | 1.7 | 1.7 | 0.00 | 0.00 | 0.00 | ||
| 20260509075103 | 70 | 201 | 1.7 | 1.7 | 0.00 | 0.00 | 0.00 | ||
| 20260509074603 | 70 | 165 | 0.0 | 0.9 | 0.00 | 0.00 | 0.00 | ||
| 20260509074104 | 70 | 184 | 1.7 | 1.7 | 0.00 | 0.00 | 0.00 | ||
| 20260509073603 | 70 | 170 | 1.7 | 0.9 | 0.00 | 0.00 | 0.00 | ||
| 20260509073103 | 71 | 234 | 1.7 | 4.3 | 0.00 | 0.00 | 0.00 | ||
| 20260509072603 | 71 | 248 | 1.7 | 2.6 | 0.00 | 0.00 | 0.00 | ||
| 20260509071603 | 71 | 180 | 2.6 | 1.7 | 0.00 | 0.00 | 0.00 | ||
| 20260509071104 | 71 | 283 | 1.7 | 0.9 | 0.00 | 0.00 | 0.00 | ||
| 20260509070603 | 71 | 228 | 2.6 | 3.5 | 0.00 | 0.00 | 0.00 | ||
| 20260509065603 | 71 | 228 | 1.7 | 2.6 | 0.00 | 0.00 | 0.00 | ||
| 20260509065104 | 70 | 227 | 0.9 | 0.9 | 0.00 | 0.00 | 0.00 | ||
| 20260509063603 | 70 | 255 | 0.9 | 0.9 | 0.00 | 0.00 | 0.00 | ||
| 20260509063104 | 70 | 258 | 0.9 | 0.9 | 0.00 | 0.00 | 0.00 | ||
| 20260509061604 | 71 | 234 | 0.0 | 0.0 | 0.00 | 0.00 | 0.00 | ||
| 20260509060604 | 71 | 327 | 0.0 | 0.0 | 0.00 | 0.00 | 0.00 | ||
| 20260509060104 | 71 | 327 | 0.0 | 0.0 | 0.00 | 0.00 | 0.00 | ||
| 20260509055606 | 71 | 327 | 0.0 | 0.0 | 0.00 | 0.00 | 0.00 | ||
| 20260509055104 | 71 | 327 | 0.0 | 0.0 | 0.00 | 0.00 | 0.00 | ||
| 20260509054604 | 71 | 327 | 0.0 | 0.0 | 0.00 | 0.00 | 0.00 | ||
| 20260509053604 | 71 | 327 | 0.0 | 0.0 | 0.00 | 0.00 | 0.00 | ||
| 20260509051604 | 70 | 348 | 2.6 | 3.5 | 0.00 | 0.00 | 0.00 | ||
| 20260509051104 | 69 | 244 | 0.0 | 0.0 | 0.00 | 0.00 | 0.00 | ||
| 20260509050604 | 70 | 244 | 0.0 | 0.0 | 0.00 | 0.00 | 0.00 | ||
| 20260509050104 | 70 | 244 | 0.0 | 0.0 | 0.00 | 0.00 | 0.00 | ||
| 20260509045604 | 71 | 244 | 0.0 | 0.0 | 0.00 | 0.00 | 0.00 | ||
| 20260509045104 | 71 | 244 | 0.0 | 0.0 | 0.00 | 0.00 | 0.00 | ||
| 20260509044604 | 71 | 244 | 0.0 | 0.0 | 0.00 | 0.00 | 0.00 | ||
| 20260509043604 | 71 | 197 | 0.0 | 0.0 | 0.00 | 0.00 | 0.00 | ||
| 20260509043104 | 72 | 197 | 1.7 | 0.9 | 0.00 | 0.00 | 0.00 | ||
| 20260509042604 | 72 | 227 | 0.9 | 2.6 | 0.00 | 0.00 | 0.00 | ||
| 20260509041604 | 72 | 179 | 0.9 | 0.9 | 0.00 | 0.00 | 0.00 | ||
| 20260509041105 | 72 | 217 | 0.0 | 0.0 | 0.00 | 0.00 | 0.00 | ||
| 20260509040605 | 72 | 183 | 0.9 | 0.9 | 0.00 | 0.00 | 0.00 | ||
| 20260509040104 | 72 | 107 | 0.9 | 0.0 | 0.00 | 0.00 | 0.00 | ||
| 20260509035604 | 72 | 110 | 0.0 | 0.0 | 0.00 | 0.00 | 0.00 | ||
| 20260509035104 | 72 | 110 | 0.0 | 0.0 | 0.00 | 0.00 | 0.00 | ||
| 20260509034604 | 72 | 110 | 0.0 | 0.0 | 0.00 | 0.00 | 0.00 | ||
| 20260509034104 | 72 | 110 | 0.0 | 0.0 | 0.00 | 0.00 | 0.00 | ||
| 20260509033604 | 72 | 110 | 0.0 | 0.0 | 0.00 | 0.00 | 0.00 | ||
| 20260509033105 | 72 | 110 | 0.0 | 0.0 | 0.00 | 0.00 | 0.00 | ||
| 20260509032605 | 72 | 110 | 0.0 | 0.0 | 0.00 | 0.00 | 0.00 | ||
| 20260509032104 | 73 | 110 | 0.0 | 0.0 | 0.00 | 0.00 | 0.00 | ||
| 20260509031605 | 73 | 110 | 0.0 | 0.0 | 0.00 | 0.00 | 0.00 | ||
| 20260509031104 | 73 | 99 | 0.0 | 0.0 | 0.00 | 0.00 | 0.00 | ||
| 20260509030604 | 73 | 165 | 0.0 | 0.0 | 0.00 | 0.00 | 0.00 | ||
| 20260509025605 | 72 | 155 | 0.0 | 0.0 | 0.00 | 0.00 | 0.00 | ||
| 20260509025104 | 73 | 155 | 0.0 | 0.0 | 0.00 | 0.00 | 0.00 | ||
| 20260509024604 | 73 | 76 | 1.7 | 0.9 | 0.00 | 0.00 | 0.00 | ||
| 20260509023604 | 73 | 200 | 0.9 | 0.9 | 0.00 | 0.00 | 0.00 | ||
| 20260509023104 | 73 | 175 | 1.7 | 2.6 | 0.00 | 0.00 | 0.00 | ||
| 20260509022605 | 73 | 97 | 0.9 | 0.0 | 0.00 | 0.00 | 0.00 | ||
| 20260509021604 | 73 | 159 | 0.9 | 1.7 | 0.00 | 0.00 | 0.00 | ||
| 20260509021104 | 73 | 180 | 0.9 | 1.7 | 0.00 | 0.00 | 0.00 | ||
| 20260509020605 | 73 | 180 | 1.7 | 2.6 | 0.00 | 0.00 | 0.00 | ||
| 20260509015604 | 73 | 139 | 0.0 | 0.0 | 0.00 | 0.00 | 0.00 | ||
| 20260509015105 | 73 | 189 | 0.0 | 0.0 | 0.00 | 0.00 | 0.00 | ||
| 20260509014604 | 73 | 169 | 0.9 | 1.7 | 0.00 | 0.00 | 0.00 | ||
| 20260509013605 | 74 | 107 | 0.9 | 0.9 | 0.00 | 0.00 | 0.00 | ||
| 20260509012605 | 73 | 175 | 0.9 | 1.7 | 0.00 | 0.00 | 0.00 | ||
| 20260509012105 | 73 | 124 | 0.9 | 0.0 | 0.00 | 0.00 | 0.00 | ||
| 20260509011105 | 73 | 165 | 0.0 | 0.0 | 0.00 | 0.00 | 0.00 | ||
| 20260509010605 | 73 | 165 | 0.0 | 0.0 | 0.00 | 0.00 | 0.00 | ||
| 20260509005605 | 73 | 176 | 0.0 | 0.0 | 0.00 | 0.00 | 0.00 | ||
| 20260509005105 | 74 | 176 | 0.0 | 0.0 | 0.00 | 0.00 | 0.00 | ||
| 20260509004605 | 74 | 176 | 1.7 | 0.0 | 0.00 | 0.00 | 0.00 | ||
| 20260509003605 | 74 | 200 | 0.0 | 0.9 | 0.00 | 0.00 | 0.00 | ||
| 20260509003105 | 74 | 100 | 0.9 | 0.0 | 0.00 | 0.00 | 0.00 | ||
| 20260509002105 | 73 | 114 | 0.9 | 0.9 | 0.00 | 0.00 | 0.00 | ||
| 20260509001605 | 74 | 166 | 0.9 | 2.6 | 0.00 | 0.00 | 0.00 | ||
| 20260509001105 | 75 | 94 | 0.0 | 0.0 | 0.00 | 0.00 | 0.00 | ||
| 20260509000605 | 74 | 41 | 1.7 | 0.9 | 0.00 | 0.00 | 0.00 | ||
| 20260508235605 | 75 | 137 | 0.9 | 2.6 | 0.00 | 0.00 | 0.00 | ||
| 20260508235105 | 75 | 134 | 1.7 | 1.7 | 0.00 | 0.00 | 0.00 | ||
| 20260508233605 | 75 | 176 | 2.6 | 0.9 | 0.00 | 0.00 | 0.00 | ||
| 20260508231105 | 75 | 217 | 0.9 | 0.9 | 0.00 | 0.00 | 0.00 | ||
| 20260508225606 | 76 | 152 | 1.7 | 0.9 | 0.00 | 0.00 | 0.00 | ||
| 20260508225106 | 76 | 139 | 3.5 | 2.6 | 0.00 | 0.00 | 0.00 | ||
| 20260508221106 | 76 | 203 | 2.6 | 2.6 | 0.00 | 0.00 | 0.00 | ||
| 20260508220606 | 76 | 90 | 3.5 | 3.5 | 0.00 | 0.00 | 0.00 | ||
| 20260508215105 | 77 | 217 | 4.3 | 10.4 | 0.00 | 0.00 | 0.00 | ||
| 20260508214606 | 77 | 224 | 3.5 | 2.6 | 0.00 | 0.00 | 0.00 | ||
| 20260508213606 | 77 | 131 | 2.6 | 1.7 | 0.00 | 0.00 | 0.00 | ||
| 20260508211106 | 77 | 211 | 4.3 | 6.1 | 0.00 | 0.00 | 0.00 | ||
| 20260508210605 | 77 | 163 | 1.7 | 0.0 | 0.00 | 0.00 | 0.00 | ||
| 20260508205606 | 76 | 172 | 2.6 | 2.6 | 0.00 | 0.00 | 0.00 | ||
| 20260508205106 | 76 | 160 | 2.6 | 2.6 | 0.00 | 0.00 | 0.00 | ||
| 20260508204106 | 78 | 172 | 1.7 | 0.9 | 0.00 | 0.00 | 0.00 | ||
| 20260508203106 | 75 | 110 | 1.7 | 2.6 | 0.00 | 0.00 | 0.00 | ||
| 20260508201606 | 72 | 94 | 0.9 | 0.9 | 0.00 | 0.00 | 0.00 | ||
| 20260508201106 | 72 | 158 | 0.0 | 0.9 | 0.00 | 0.00 | 0.00 | ||
| 20260508195606 | 73 | 246 | 3.5 | 4.3 | 0.00 | 0.00 | 0.00 | ||
| 20260508195106 | 72 | 210 | 2.6 | 3.5 | 0.00 | 0.00 | 0.00 | ||
| 20260508194606 | 73 | 200 | 3.5 | 1.7 | 0.00 | 0.00 | 0.00 | ||
| 20260508193606 | 74 | 227 | 3.5 | 2.6 | 0.00 | 0.00 | 0.00 | ||
| 20260508191106 | 75 | 175 | 2.6 | 4.3 | 0.00 | 0.00 | 0.00 | ||
| 20260508190606 | 75 | 269 | 2.6 | 4.3 | 0.00 | 0.00 | 0.00 | ||
| 20260508185606 | 75 | 246 | 3.5 | 5.2 | 0.00 | 0.00 | 0.00 | ||
| 20260508185107 | 75 | 242 | 3.5 | 6.1 | 0.00 | 0.00 | 0.00 | ||
| 20260508184606 | 75 | 259 | 2.6 | 3.5 | 0.00 | 0.00 | 0.00 | ||
| 20260508183606 | 75 | 210 | 2.6 | 1.7 | 0.00 | 0.00 | 0.00 | ||
| 20260508183106 | 76 | 232 | 3.5 | 3.5 | 0.00 | 0.00 | 0.00 | ||
| 20260508181107 | 80 | 218 | 2.6 | 2.6 | 0.00 | 0.00 | 0.00 | ||
| 20260508180606 | 79 | 106 | 3.5 | 2.6 | 0.00 | 0.00 | 0.00 | ||
| 20260508175606 | 76 | 222 | 1.7 | 1.7 | 0.00 | 0.00 | 0.00 | ||
| 20260508175229 | 77 | 160 | 1.7 | 1.7 | 0.00 | 0.00 | 0.00 | ||
| 20260508175106 | 77 | 160 | 1.7 | 1.7 | 0.00 | 0.00 | 0.00 | ||
| 20260508174607 | 76 | 179 | 1.7 | 0.9 | 0.00 | 0.00 | 0.00 | ||
| 20260508173606 | 75 | 228 | 2.6 | 2.6 | 0.00 | 0.00 | 0.00 | ||
| 20260508173106 | 74 | 244 | 1.7 | 3.5 | 0.00 | 0.00 | 0.00 | ||
| 20260508172606 | 74 | 141 | 0.9 | 0.0 | 0.00 | 0.00 | 0.00 | ||
| 20260508171606 | 76 | 200 | 0.9 | 0.9 | 0.00 | 0.00 | 0.00 | ||
| 20260508171107 | 78 | 117 | 1.7 | 3.5 | 0.00 | 0.00 | 0.00 | ||
| 20260508170606 | 77 | 229 | 3.5 | 6.1 | 0.00 | 0.00 | 0.00 | ||
| 20260508170106 | 75 | 258 | 2.6 | 2.6 | 0.00 | 0.00 | 0.00 | ||
| 20260508165607 | 75 | 248 | 2.6 | 3.5 | 0.00 | 0.00 | 0.00 | ||
| 20260508165106 | 75 | 273 | 0.9 | 1.7 | 0.00 | 0.00 | 0.00 | ||
| 20260508164606 | 76 | 172 | 3.5 | 4.3 | 0.00 | 0.00 | 0.00 | ||
| 20260508163607 | 76 | 232 | 2.6 | 3.5 | 0.00 | 0.00 | 0.00 | ||
| 20260508163106 | 74 | 199 | 1.7 | 1.7 | 0.00 | 0.00 | 0.00 | ||
| 20260508162606 | 72 | 46 | 0.9 | 0.9 | 0.00 | 0.00 | 0.00 |